Voltar ao catálogo

APSTAR 5

TELSTAR 18

AtivoComunicaçõesGEO
NORAD 28364·PAYLOAD·🇨🇳 China

Lançado Jun 29, 2004 de Sea Launch Platform

Loading…

TLE

AtualizadoSource: Space-Track

Época: Sep 14, 2026, 12:26 UTC

1 28364U 04024A   26257.51862867  .00000051  00000-0  00000-0 0  9994
2 28364   7.1942  68.6634 0001626  31.2849 154.7859  0.99010351 81188

Acompanhe APSTAR 5 em tempo real com AllMySat

Download on the App Store